TimeEST,TemperatureF,Dew PointF,Humidity,Sea Level PressureIn,VisibilityMPH,Wind Direction,Wind SpeedMPH,Gust SpeedMPH,PrecipitationIn,Events,Conditions,WindDirDegrees,DateUTC
12:15 AM,31.8,27.3,83,30.42,10.0,Calm,Calm,-,N/A,,Clear,0,2012-11-17 05:15:00
12:35 AM,32.2,27.1,82,30.42,10.0,Calm,Calm,-,N/A,,Clear,0,2012-11-17 05:35:00
12:55 AM,31.8,26.6,81,30.42,10.0,Calm,Calm,-,N/A,,Clear,0,2012-11-17 05:55:00
1:15 AM,30.9,27.0,85,30.42,10.0,Calm,Calm,-,N/A,,Clear,0,2012-11-17 06:15:00
1:35 AM,31.1,27.0,85,30.42,10.0,ESE,3.5,-,N/A,,Clear,110,2012-11-17 06:35:00
1:55 AM,32.0,26.8,81,30.42,10.0,Calm,Calm,-,N/A,,Clear,0,2012-11-17 06:55:00
2:15 AM,31.8,26.8,82,30.43,10.0,Calm,Calm,-,N/A,,Clear,0,2012-11-17 07:15:00
2:35 AM,31.5,26.4,82,30.42,10.0,Calm,Calm,-,N/A,,Clear,0,2012-11-17 07:35:00
2:55 AM,31.3,26.4,82,30.42,10.0,Calm,Calm,-,N/A,,Clear,0,2012-11-17 07:55:00
3:15 AM,31.6,26.4,81,30.43,10.0,Calm,Calm,-,N/A,,Clear,0,2012-11-17 08:15:00
3:35 AM,31.6,26.4,81,30.43,10.0,East,3.5,-,N/A,,Clear,80,2012-11-17 08:35:00
3:55 AM,32.0,26.4,80,30.43,10.0,Calm,Calm,-,N/A,,Clear,0,2012-11-17 08:55:00
4:15 AM,31.3,26.2,82,30.43,10.0,East,3.5,-,N/A,,Clear,80,2012-11-17 09:15:00
4:55 AM,32.0,26.6,80,30.43,10.0,ENE,4.6,-,N/A,,Clear,70,2012-11-17 09:55:00
5:15 AM,32.0,26.4,80,30.44,10.0,East,3.5,-,N/A,,Clear,80,2012-11-17 10:15:00
5:35 AM,32.0,26.6,80,30.44,10.0,ENE,3.5,-,N/A,,Clear,70,2012-11-17 10:35:00
5:55 AM,32.0,26.6,80,30.46,10.0,East,4.6,-,N/A,,Clear,90,2012-11-17 10:55:00
6:15 AM,31.1,26.4,83,30.46,10.0,East,4.6,-,N/A,,Clear,90,2012-11-17 11:15:00
6:35 AM,30.9,26.4,83,30.47,10.0,Calm,Calm,-,N/A,,Clear,0,2012-11-17 11:35:00
6:55 AM,30.9,26.2,83,30.47,10.0,East,3.5,-,N/A,,Clear,80,2012-11-17 11:55:00
7:15 AM,31.1,26.6,83,30.47,10.0,East,3.5,-,N/A,,Clear,80,2012-11-17 12:15:00
7:35 AM,32.0,26.8,81,30.48,10.0,ENE,4.6,-,N/A,,Clear,70,2012-11-17 12:35:00
7:55 AM,33.4,27.5,79,30.49,10.0,East,3.5,-,N/A,,Clear,80,2012-11-17 12:55:00
8:15 AM,37.4,29.3,73,30.49,10.0,East,5.8,-,N/A,,Clear,90,2012-11-17 13:15:00
8:35 AM,40.1,30.6,69,30.50,10.0,East,4.6,-,N/A,,Clear,80,2012-11-17 13:35:00
8:55 AM,42.4,31.5,65,30.50,10.0,East,6.9,-,N/A,,Clear,100,2012-11-17 13:55:00
9:15 AM,44.1,31.3,61,30.50,10.0,East,6.9,-,N/A,,Clear,100,2012-11-17 14:15:00
9:35 AM,45.1,29.3,54,30.51,10.0,East,9.2,-,N/A,,Clear,80,2012-11-17 14:35:00
9:55 AM,45.7,28.6,51,30.51,10.0,East,10.4,-,N/A,,Clear,90,2012-11-17 14:55:00
10:15 AM,46.9,28.0,48,30.51,10.0,East,10.4,17.3,N/A,,Clear,90,2012-11-17 15:15:00
10:35 AM,47.7,27.3,45,30.51,10.0,ENE,11.5,16.1,N/A,,Clear,70,2012-11-17 15:35:00
10:55 AM,48.6,26.1,42,30.50,10.0,East,12.7,16.1,N/A,,Clear,100,2012-11-17 15:55:00
11:15 AM,49.1,24.8,39,30.50,10.0,ESE,9.2,17.3,N/A,,Clear,110,2012-11-17 16:15:00
11:35 AM,49.8,24.1,37,30.49,10.0,East,9.2,17.3,N/A,,Clear,80,2012-11-17 16:35:00
12:55 PM,54.0,21.4,28,30.46,10.0,ENE,11.5,-,N/A,,Clear,70,2012-11-17 17:55:00
1:15 PM,54.1,19.6,26,30.45,10.0,East,10.4,-,N/A,,Clear,80,2012-11-17 18:15:00
1:35 PM,54.5,18.3,24,30.45,10.0,East,10.4,16.1,N/A,,Clear,100,2012-11-17 18:35:00
1:55 PM,55.2,20.5,26,30.44,10.0,East,11.5,-,N/A,,Clear,100,2012-11-17 18:55:00
2:15 PM,54.9,21.0,27,30.44,10.0,East,11.5,16.1,N/A,,Clear,90,2012-11-17 19:15:00
2:35 PM,55.2,19.2,25,30.44,10.0,East,13.8,-,N/A,,Clear,80,2012-11-17 19:35:00
2:55 PM,55.0,17.8,23,30.44,10.0,East,10.4,-,N/A,,Clear,80,2012-11-17 19:55:00
3:15 PM,54.9,18.9,24,30.45,10.0,East,9.2,-,N/A,,Clear,90,2012-11-17 20:15:00
3:35 PM,54.3,20.5,27,30.45,10.0,East,10.4,-,N/A,,Clear,90,2012-11-17 20:35:00
3:55 PM,54.0,19.4,26,30.45,10.0,ENE,8.1,-,N/A,,Clear,70,2012-11-17 20:55:00
4:15 PM,53.6,19.9,27,30.46,10.0,East,9.2,-,N/A,,Clear,90,2012-11-17 21:15:00
4:35 PM,53.1,20.1,28,30.46,10.0,East,6.9,-,N/A,,Clear,80,2012-11-17 21:35:00
4:55 PM,51.6,20.3,29,30.45,10.0,NE,8.1,-,N/A,,Clear,50,2012-11-17 21:55:00
5:15 PM,50.0,20.5,31,30.46,10.0,East,6.9,-,N/A,,Clear,90,2012-11-17 22:15:00
5:35 PM,48.0,21.6,35,30.47,10.0,East,4.6,-,N/A,,Clear,80,2012-11-17 22:35:00
5:55 PM,45.7,22.3,40,30.48,10.0,ENE,5.8,-,N/A,,Clear,60,2012-11-17 22:55:00
6:15 PM,45.3,22.6,41,30.48,10.0,ENE,4.6,-,N/A,,Clear,70,2012-11-17 23:15:00
6:35 PM,43.9,22.5,43,30.47,10.0,ENE,4.6,-,N/A,,Clear,70,2012-11-17 23:35:00
6:55 PM,43.0,21.7,43,30.48,10.0,East,4.6,-,N/A,,Clear,100,2012-11-17 23:55:00
7:15 PM,43.3,21.2,41,30.49,10.0,ESE,4.6,-,N/A,,Clear,110,2012-11-18 00:15:00
7:35 PM,41.7,22.6,47,30.49,10.0,East,3.5,-,N/A,,Clear,100,2012-11-18 00:35:00
7:55 PM,41.7,22.8,47,30.49,10.0,ESE,5.8,-,N/A,,Clear,110,2012-11-18 00:55:00
8:15 PM,41.0,23.2,49,30.49,10.0,East,4.6,-,N/A,,Clear,90,2012-11-18 01:15:00
8:35 PM,40.1,23.9,52,30.49,10.0,East,3.5,-,N/A,,Clear,80,2012-11-18 01:35:00
8:55 PM,39.9,23.9,53,30.50,10.0,ENE,4.6,-,N/A,,Clear,70,2012-11-18 01:55:00
9:15 PM,38.8,24.8,57,30.50,10.0,East,3.5,-,N/A,,Clear,90,2012-11-18 02:15:00
9:35 PM,38.7,25.2,58,30.50,10.0,ENE,5.8,-,N/A,,Clear,70,2012-11-18 02:35:00
9:55 PM,38.5,24.8,58,30.50,10.0,East,4.6,-,N/A,,Clear,90,2012-11-18 02:55:00
10:15 PM,38.3,24.8,58,30.50,10.0,East,8.1,-,N/A,,Clear,80,2012-11-18 03:15:00
10:35 PM,39.4,24.1,54,30.49,10.0,East,8.1,-,N/A,,Clear,80,2012-11-18 03:35:00
10:55 PM,38.3,24.6,58,30.50,10.0,East,5.8,-,N/A,,Clear,80,2012-11-18 03:55:00
11:15 PM,37.8,24.6,59,30.50,10.0,ENE,5.8,-,N/A,,Clear,70,2012-11-18 04:15:00
11:35 PM,37.4,24.6,60,30.49,10.0,ENE,8.1,-,N/A,,Clear,70,2012-11-18 04:35:00
11:55 PM,36.7,24.8,62,30.49,10.0,ENE,5.8,-,N/A,,Clear,70,2012-11-18 04:55:00